Wind_Speed
27 27 27 27 27 27 26 26 26 25 24 25 25 24 24 24 24 24 24 24 23 22 23 23 23 23 22 22 23 23 23 23 23 22 21 21 21 20
27 27 27 28 27 27 27 28 27 27 25 25 25 25 25 25 25 25 25 25 24 24 24 24 24 24 24 24 24 24 24 24 24 24 22 22 22 21
27 27 28 28 28 28 28 28 28 28 27 26 25 25 26 26 26 26 26 26 25 25 25 25 24 25 25 25 25 25 25 24 23 23 23 23 23 23
26 27 28 28 28 28 28 28 27 27 27 27 25 25 26 26 26 26 26 26 26 25 25 25 25 26 26 25 25 25 24 24 24 24 24 24 24 24
26 27 27 27 28 28 28 28 28 28 28 27 26 26 27 27 27 26 26 26 26 26 26 26 26 26 25 25 25 24 24 24 24 24 25 25 25 25
27 27 27 28 28 27 27 27 28 28 28 28 27 26 27 27 26 27 27 27 26 25 25 25 26 26 25 25 25 25 25 25 25 25 25 25 25 25
27 28 28 27 27 27 28 28 28 27 28 28 27 27 27 27 27 27 28 27 27 26 26 26 26 26 26 25 25 25 25 26 26 26 26 26 25 25
28 28 28 28 27 26 27 28 28 27 27 27 27 27 28 28 27 28 28 28 28 27 27 27 27 27 27 26 25 26 26 26 26 27 27 26 26 26
28 28 28 28 28 27 27 27 28 27 27 27 27 28 28 28 28 28 28 28 28 27 27 27 27 28 28 27 27 26 26 26 27 27 27 27 27 27
28 28 28 28 28 28 28 27 27 27 27 28 27 27 28 28 28 28 28 28 28 28 28 27 27 28 28 28 28 27 27 27 27 27 27 27 27 28
28 28 29 28 28 28 27 27 27 27 27 27 27 27 27 28 28 28 28 28 28 28 28 28 28 28 28 28 28 28 27 27 26 26 26 26 27 27
28 28 28 28 28 28 28 28 28 28 28 28 28 27 27 27 27 27 27 28 28 28 28 28 28 28 29 29 29 29 28 28 27 27 27 26 26 26
28 28 27 27 28 28 28 27 28 29 29 28 28 28 27 26 27 27 27 27 27 28 28 29 29 29 30 30 30 30 30 29 28 28 27 27 27 27
27 27 27 27 27 28 28 28 28 28 29 28 28 28 27 27 27 27 27 27 27 28 28 28 29 29 29 30 30 30 30 30 29 28 28 29 29 29
27 27 27 28 27 28 28 28 28 27 27 27 28 28 27 27 27 28 28 27 28 28 29 28 29 29 29 29 30 30 30 30 30 30 30 30 30 31
26 27 27 28 29 29 29 29 28 28 27 27 28 28 28 27 27 27 28 29 28 28 28 28 28 29 29 29 29 30 30 31 31 30 30 30 30 30
26 27 28 28 29 29 29 29 29 29 28 28 28 28 29 28 28 28 28 29 29 29 28 28 28 29 29 29 30 30 30 30 30 30 30 30 30 31
27 27 28 28 28 29 29 29 30 29 29 28 29 28 28 28 28 29 29 29 29 29 28 29 29 29 28 28 29 29 29 29 29 30 30 30 30 31
27 27 28 28 28 28 29 30 30 30 30 29 28 28 29 29 29 29 29 29 29 28 28 29 29 29 28 28 28 28 28 28 28 29 29 29 29 29
27 28 28 28 28 28 29 29 30 30 30 30 29 28 28 28 29 29 29 30 30 30 29 29 29 28 28 28 28 28 28 28 28 28 28 28 28 29
26 26 27 27 27 28 28 28 29 30 30 30 30 29 29 28 28 28 28 29 29 30 30 29 29 28 28 27 27 28 28 28 29 28 28 28 28 29
26 26 26 26 27 28 28 28 29 29 30 31 31 30 30 29 28 28 28 29 29 30 30 30 29 29 28 28 27 27 27 28 28 28 28 28 29 29
26 26 27 27 27 28 28 29 29 29 30 30 31 31 30 29 29 28 29 29 30 30 29 29 30 29 29 29 29 28 28 28 28 29 29 29 29 29
Wind_Direction
273 272 270 268 266 266 268 268 268 270 270 267 265 264 264 264 263 263 264 264 263 264 264 263 262 264 264 263 263 263 262 263 264 264 264 262 262 262
273 272 271 268 267 267 267 266 266 270 269 267 264 261 262 263 262 263 263 262 262 263 264 263 262 261 262 262 263 264 263 263 263 263 263 263 262 262
274 273 273 271 268 267 266 266 267 268 267 266 264 261 260 260 261 262 262 262 262 263 263 263 262 261 261 261 262 264 264 263 262 262 263 263 262 262
274 274 275 273 271 268 266 266 267 267 264 264 263 264 263 260 259 260 261 260 261 262 261 262 261 261 261 262 263 264 264 263 262 262 261 262 262 261
274 274 275 274 273 270 265 265 266 266 264 262 262 264 265 262 260 260 260 261 261 262 263 263 261 261 261 262 262 263 264 263 262 261 261 261 261 260
275 274 274 274 272 269 266 264 265 265 264 262 261 262 263 262 262 261 262 263 263 263 265 264 262 262 262 262 262 263 264 263 261 260 261 261 261 260
275 275 274 273 272 268 266 264 264 265 264 262 261 262 263 264 263 262 262 262 262 263 263 263 261 261 260 260 261 262 264 264 263 261 261 262 261 260
274 274 274 272 270 269 268 266 264 264 264 262 261 263 264 264 263 263 262 262 263 264 263 262 260 260 259 259 261 262 263 265 264 263 261 262 262 262
275 275 274 273 270 270 269 267 265 263 262 261 261 263 263 263 262 262 262 261 262 263 263 263 262 262 261 260 260 261 263 265 265 264 264 263 262 262
274 273 274 273 271 269 268 267 266 264 262 260 261 262 262 263 263 262 261 259 260 260 262 262 260 260 260 260 261 262 264 265 266 266 266 265 263 262
273 272 272 272 272 269 268 267 267 265 263 260 260 262 261 262 261 261 259 259 259 259 261 262 262 261 260 261 261 261 263 265 266 266 267 265 264 264
273 272 270 271 271 269 267 267 266 265 264 261 260 263 261 260 261 261 259 258 259 260 261 262 263 262 261 261 261 261 262 263 265 266 266 265 266 265
273 272 272 271 271 269 268 266 265 265 263 262 260 260 259 259 260 260 260 259 260 262 262 263 264 263 262 262 261 260 260 261 263 264 265 264 266 266
273 271 271 272 271 269 269 269 267 267 263 260 258 258 259 260 261 262 260 260 260 262 262 263 263 263 263 261 261 260 259 260 261 263 264 265 266 266
274 272 270 271 272 270 269 269 268 266 263 259 257 257 258 260 261 262 260 258 260 262 264 264 264 264 263 261 259 258 259 260 261 262 263 264 264 264
275 273 272 271 271 270 270 271 269 266 265 261 258 258 257 259 261 261 260 259 260 262 263 265 265 266 264 262 261 261 260 261 261 261 263 263 264 265
276 274 273 273 272 270 269 269 269 267 265 263 260 257 258 260 262 262 261 261 261 262 264 265 266 266 265 264 265 264 264 263 264 265 265 265 265 265
276 275 274 273 272 270 268 269 269 267 264 263 261 258 259 261 262 262 262 262 261 261 262 263 265 265 265 264 263 264 264 264 264 265 266 265 265 263
274 274 273 273 272 270 269 269 267 266 265 263 262 260 260 261 262 261 262 263 261 261 261 261 262 262 263 263 262 262 263 264 265 265 265 265 264 264
274 273 272 271 270 270 271 269 266 265 264 262 262 261 260 261 261 261 262 263 261 262 263 263 263 263 263 262 262 263 265 266 266 267 268 267 266 266
277 276 275 273 271 270 271 270 267 266 264 262 261 261 260 261 260 260 261 261 261 262 263 263 264 263 262 261 262 264 266 267 267 267 267 268 267 267
278 277 275 274 273 272 271 271 268 265 263 262 262 262 261 261 260 259 259 259 259 261 261 262 262 262 262 263 264 265 266 267 268 268 268 269 269 269
278 278 276 275 275 275 274 272 269 265 264 263 262 262 261 261 261 258 259 259 259 260 260 260 261 262 262 262 264 265 266 267 267 268 270 271 272 272
Height
5777 5777 5776 5776 5776 5776 5777 5777 5777 5777 5777 5776 5776 5776 5777 5777 5778 5778 5779 5779 5780 5780 5780 5781 5781 5781 5781 5782 5782 5782 5782 5782 5782 5783 5783 5783 5783 5783
5769 5769 5768 5768 5768 5768 5768 5768 5768 5769 5769 5769 5769 5769 5769 5770 5770 5771 5771 5772 5772 5773 5773 5774 5774 5775 5775 5775 5775 5775 5775 5776 5776 5776 5776 5777 5777 5776
5761 5760 5760 5759 5759 5759 5759 5760 5760 5760 5760 5761 5761 5761 5762 5762 5763 5763 5764 5764 5765 5765 5766 5766 5767 5767 5767 5768 5768 5768 5768 5768 5769 5769 5769 5770 5770 5770
5753 5752 5751 5751 5750 5750 5751 5751 5751 5751 5752 5752 5753 5753 5754 5754 5755 5755 5756 5757 5757 5758 5758 5758 5759 5759 5759 5760 5760 5761 5761 5761 5762 5762 5763 5763 5763 5763
5744 5744 5743 5742 5742 5742 5742 5742 5742 5743 5743 5744 5745 5745 5745 5746 5747 5747 5748 5749 5749 5750 5750 5750 5751 5751 5752 5752 5753 5753 5754 5754 5754 5755 5755 5755 5756 5756
5736 5735 5735 5734 5734 5734 5733 5734 5734 5734 5735 5736 5736 5737 5737 5737 5738 5739 5740 5741 5741 5742 5742 5743 5743 5744 5744 5745 5745 5746 5746 5746 5747 5747 5748 5748 5748 5748
5728 5727 5726 5725 5725 5725 5725 5725 5725 5726 5726 5727 5728 5729 5729 5730 5730 5731 5732 5733 5733 5734 5734 5735 5735 5736 5736 5737 5738 5738 5739 5739 5739 5739 5740 5740 5740 5740
5719 5718 5717 5716 5716 5716 5716 5716 5717 5717 5718 5719 5720 5721 5721 5722 5722 5723 5723 5724 5725 5726 5726 5727 5727 5728 5728 5729 5730 5730 5731 5731 5731 5731 5731 5732 5732 5732
5710 5709 5708 5708 5707 5707 5707 5708 5708 5708 5710 5710 5711 5712 5713 5713 5714 5714 5715 5716 5717 5718 5718 5718 5719 5720 5720 5721 5722 5722 5722 5723 5723 5723 5723 5723 5723 5724
5700 5700 5699 5699 5698 5699 5699 5699 5699 5700 5701 5701 5703 5703 5704 5704 5705 5706 5707 5707 5708 5709 5710 5710 5710 5711 5712 5712 5713 5714 5714 5714 5714 5714 5714 5714 5715 5715
5691 5691 5690 5690 5690 5689 5689 5690 5690 5691 5691 5692 5693 5694 5694 5695 5696 5697 5698 5699 5700 5701 5701 5702 5702 5703 5703 5704 5704 5705 5705 5705 5706 5706 5706 5706 5706 5706
5682 5682 5681 5681 5681 5680 5680 5681 5681 5682 5683 5683 5684 5685 5685 5686 5687 5688 5689 5690 5691 5692 5693 5694 5694 5694 5695 5695 5696 5696 5697 5697 5697 5698 5698 5697 5698 5698
5673 5673 5673 5672 5672 5671 5671 5672 5672 5672 5673 5674 5675 5676 5677 5678 5678 5679 5680 5681 5682 5683 5684 5684 5685 5685 5686 5687 5687 5687 5688 5688 5689 5689 5689 5689 5689 5689
5665 5664 5664 5664 5663 5663 5663 5662 5663 5663 5664 5665 5666 5667 5668 5669 5670 5671 5672 5673 5674 5674 5675 5675 5676 5676 5677 5677 5678 5678 5678 5679 5679 5680 5680 5680 5679 5679
5656 5655 5655 5655 5654 5654 5654 5654 5654 5654 5655 5656 5658 5659 5660 5661 5662 5662 5663 5664 5664 5665 5665 5666 5666 5667 5667 5667 5668 5668 5669 5669 5669 5670 5670 5670 5670 5670
5647 5646 5646 5646 5645 5645 5645 5645 5645 5646 5646 5647 5649 5650 5651 5652 5653 5653 5654 5654 5655 5656 5656 5657 5657 5657 5657 5657 5658 5659 5659 5659 5660 5660 5660 5660 5660 5660
5638 5638 5637 5637 5636 5636 5636 5636 5636 5636 5637 5638 5639 5641 5642 5643 5644 5645 5645 5645 5646 5647 5648 5648 5648 5648 5648 5648 5649 5649 5649 5650 5650 5650 5650 5650 5650 5650
5629 5629 5628 5628 5627 5627 5627 5627 5627 5627 5628 5629 5630 5631 5633 5634 5634 5635 5636 5637 5637 5638 5638 5638 5639 5639 5639 5638 5639 5640 5640 5640 5641 5641 5641 5641 5641 5640
5621 5620 5619 5619 5618 5618 5618 5618 5618 5618 5619 5620 5621 5622 5623 5624 5625 5626 5627 5628 5628 5629 5629 5630 5630 5630 5630 5630 5630 5630 5631 5631 5631 5631 5631 5631 5631 5631
5612 5611 5610 5610 5609 5609 5609 5609 5609 5609 5610 5611 5612 5613 5614 5615 5616 5617 5618 5618 5619 5620 5620 5620 5621 5621 5621 5622 5622 5622 5621 5622 5622 5622 5622 5622 5622 5622
5603 5602 5602 5601 5600 5600 5600 5599 5599 5600 5600 5601 5602 5604 5605 5606 5606 5607 5608 5609 5610 5610 5611 5611 5612 5612 5611 5612 5613 5613 5613 5612 5612 5613 5613 5613 5613 5613
5594 5594 5593 5592 5591 5591 5591 5590 5590 5591 5591 5592 5593 5594 5595 5596 5597 5598 5599 5600 5600 5601 5602 5602 5602 5602 5603 5603 5604 5604 5604 5604 5603 5603 5603 5603 5603 5603
5586 5585 5584 5583 5582 5582 5581 5581 5581 5581 5582 5583 5584 5585 5586 5587 5588 5589 5590 5590 5591 5591 5592 5592 5592 5593 5594 5594 5595 5595 5595 5595 5595 5594 5594 5593 5593 5593